Location: San Antonio
(29.4240°N, 98.4930°W)
Time: 15:56:47
(UTC-05:00)

ISS - All Passes

Search period start: 19 April 2014 00:00
Search period end: 29 April 2014 00:00
Orbit: 414 x 419 km, 51.6° (Epoch: 19 April)

Date Brightness Start Highest point End Pass type
(mag) Time Alt. Az. Time Alt. Az. Time Alt. Az.
19 Apr - 01:20:36 10° WSW 01:21:01 10° SW 01:21:26 10° SW night (unlit)
19 Apr - 14:43:11 10° S 14:46:05 29° SE 14:49:01 10° ENE daylight
19 Apr - 16:20:25 10° W 16:22:50 18° NW 16:25:16 10° N daylight
19 Apr - 22:53:22 10° NNW 22:56:10 24° NE 22:58:58 10° E visible
20 Apr - 00:30:14 10° WNW 00:32:47 20° SW 00:35:20 10° S night (unlit)
20 Apr - 13:55:54 10° SSE 13:57:48 14° SE 13:59:42 10° E daylight
20 Apr - 15:31:15 10° WSW 15:34:17 32° NW 15:37:20 10° NNE daylight
20 Apr - 22:05:39 10° N 22:07:34 14° NE 22:09:29 10° ENE visible
20 Apr - 23:41:16 10° WNW 23:44:26 41° SW 23:47:36 10° SSE night (unlit)
21 Apr - 14:42:27 10° SW 14:45:45 67° NW 14:49:05 10° NE daylight
21 Apr - 22:52:38 10° NW 22:55:59 88° NE 22:59:19 10° SE visible
22 Apr - 13:53:59 10° SSW 13:57:15 55° SE 14:00:31 10° NE daylight
22 Apr - 15:32:50 10° WNW 15:34:12 12° NW 15:35:34 10° N daylight
22 Apr - 22:04:13 10° NNW 22:07:24 41° NE 22:10:34 10° ESE visible
22 Apr - 23:42:40 10° WSW 23:43:48 11° SW 23:44:55 10° SW night (unlit)
23 Apr - 13:05:55 10° S 13:08:44 26° SE 13:11:33 10° ENE daylight
23 Apr - 14:42:52 10° W 14:45:25 20° NW 14:47:57 10° N daylight
23 Apr - 21:15:59 10° NNW 21:18:41 22° NE 21:21:22 10° E visible
23 Apr - 22:52:38 10° WNW 22:55:19 23° SW 22:57:59 10° S visible
24 Apr - 12:18:38 10° SSE 12:20:12 13° SE 12:21:47 10° E daylight
24 Apr - 13:53:32 10° WSW 13:56:38 36° NW 13:59:45 10° NNE daylight
24 Apr - 20:28:08 10° N 20:29:49 13° NE 20:31:30 10° ENE visible
24 Apr - 22:03:30 10° NW 22:06:44 47° SW 22:09:56 10° SSE visible
25 Apr - 13:04:34 10° SW 13:07:53 76° NW 13:11:12 10° NE daylight
25 Apr - 21:14:41 10° NW 21:18:01 77° NE 21:21:20 10° SE visible
26 Apr - 12:15:56 10° SSW 12:19:08 47° SE 12:22:21 10° NE daylight
26 Apr - 13:54:22 10° WNW 13:56:01 13° NW 13:57:41 10° N daylight
26 Apr - 20:26:04 10° NNW 20:29:10 36° NE 20:32:16 10° ESE visible
26 Apr - 22:04:00 10° W 22:05:36 13° SW 22:07:11 10° SSW visible
27 Apr - 11:27:44 10° S 11:30:23 22° SE 11:33:03 10° ENE daylight
27 Apr - 13:04:20 10° W 13:07:00 22° NW 13:09:41 10° NNE daylight
27 Apr - 19:37:40 10° N 19:40:12 20° NE 19:42:44 10° E daylight
27 Apr - 21:14:02 10° WNW 21:16:52 26° SW 21:19:41 10° S visible
28 Apr - 10:40:37 10° SE 10:41:38 11° SE 10:42:40 10° ESE daylight
28 Apr - 12:14:51 10° WSW 12:18:00 41° NW 12:21:11 10° NNE daylight
28 Apr - 18:49:46 10° N 18:51:05 12° NE 18:52:24 10° ENE daylight
28 Apr - 20:24:45 10° NW 20:28:02 56° SW 20:31:17 10° SSE daylight
